Time,TemperatureF,DewpointF,PressureIn,WindDirection,WindDirectionDegrees,WindSpeedMPH,WindSpeedGustMPH,Humidity,HourlyPrecipIn,Conditions,Clouds,dailyrainin,SoftwareType,DateUTC
2013-03-02 00:01:00,34.0,32.0,30.09,WSW,258,3.0,-999.0,94,-99.99,,,0.01,,2013-03-02 06:01:00,
2013-03-02 00:11:00,34.0,32.0,30.09,WSW,258,3.0,-999.0,94,-99.99,,,0.01,,2013-03-02 06:11:00,
2013-03-02 00:21:00,35.0,33.0,30.09,WNW,283,4.0,-999.0,94,-99.99,,,0.01,,2013-03-02 06:21:00,
2013-03-02 00:31:00,35.0,33.0,30.09,WNW,295,4.0,-999.0,94,-99.99,,,0.01,,2013-03-02 06:31:00,
2013-03-02 00:41:00,35.0,33.0,30.09,WNW,295,4.0,-999.0,94,-99.99,,,0.01,,2013-03-02 06:41:00,
2013-03-02 00:51:00,35.0,33.0,30.09,WNW,290,5.0,-999.0,93,-99.99,,,0.01,,2013-03-02 06:51:00,
2013-03-02 01:01:00,35.0,33.0,30.09,WNW,290,5.0,-999.0,93,-99.99,,,0.01,,2013-03-02 07:01:00,
2013-03-02 01:11:00,35.0,33.0,30.08,WNW,295,4.0,-999.0,94,-99.99,,,0.01,,2013-03-02 07:11:00,
2013-03-02 01:21:00,35.0,33.0,30.08,WNW,295,4.0,-999.0,94,-99.99,,,0.01,,2013-03-02 07:21:00,
2013-03-02 01:32:00,34.0,32.0,30.08,West,269,4.0,-999.0,94,-99.99,,,0.01,,2013-03-02 07:32:00,
2013-03-02 01:42:00,34.0,32.0,30.08,West,269,4.0,-999.0,94,-99.99,,,0.01,,2013-03-02 07:42:00,
2013-03-02 01:52:00,34.0,32.0,30.08,WNW,283,3.0,-999.0,94,-99.99,,,0.01,,2013-03-02 07:52:00,
2013-03-02 02:01:00,34.0,32.0,30.08,West,266,4.0,-999.0,94,-99.99,,,0.01,,2013-03-02 08:01:00,
2013-03-02 02:11:00,34.0,32.0,30.08,West,266,4.0,-999.0,94,-99.99,,,0.01,,2013-03-02 08:11:00,
2013-03-02 02:21:00,34.0,32.0,30.07,West,265,3.0,-999.0,94,-99.99,,,0.01,,2013-03-02 08:21:00,
2013-03-02 02:32:00,34.0,33.0,30.06,West,263,3.0,-999.0,95,-99.99,,,0.01,,2013-03-02 08:32:00,
2013-03-02 02:42:00,34.0,33.0,30.06,West,263,3.0,-999.0,95,-99.99,,,0.01,,2013-03-02 08:42:00,
2013-03-02 02:52:00,34.0,33.0,30.06,West,281,3.0,-999.0,95,-99.99,,,0.01,,2013-03-02 08:52:00,
2013-03-02 03:01:00,34.0,33.0,30.06,WNW,283,4.0,-999.0,95,-99.99,,,0.01,,2013-03-02 09:01:00,
2013-03-02 03:11:00,34.0,33.0,30.06,West,275,4.0,-999.0,95,-99.99,,,0.01,,2013-03-02 09:11:00,
2013-03-02 03:21:00,34.0,33.0,30.06,West,275,4.0,-999.0,95,-99.99,,,0.01,,2013-03-02 09:21:00,
2013-03-02 03:31:00,34.0,33.0,30.06,West,275,4.0,-999.0,95,-99.99,,,0.01,,2013-03-02 09:31:00,
2013-03-02 03:42:00,34.0,33.0,30.06,West,275,4.0,-999.0,95,-99.99,,,0.01,,2013-03-02 09:42:00,
2013-03-02 03:51:00,34.0,33.0,30.06,West,280,4.0,-999.0,95,-99.99,,,0.01,,2013-03-02 09:51:00,
2013-03-02 04:01:00,34.0,32.0,30.06,NW,305,4.0,-999.0,94,-99.99,,,0.01,,2013-03-02 10:01:00,
2013-03-02 04:15:00,34.0,32.0,30.06,NW,305,4.0,-999.0,94,-99.99,,,0.01,,2013-03-02 10:15:00,
2013-03-02 04:22:00,34.0,32.0,30.06,WNW,296,4.0,-999.0,94,-99.99,,,0.01,,2013-03-02 10:22:00,
2013-03-02 04:31:00,35.0,33.0,30.06,WNW,284,5.0,-999.0,93,-99.99,,,0.01,,2013-03-02 10:31:00,
2013-03-02 04:42:00,35.0,33.0,30.06,WNW,284,5.0,-999.0,93,-99.99,,,0.01,,2013-03-02 10:42:00,
2013-03-02 04:51:00,34.0,32.0,30.06,WNW,299,4.0,-999.0,93,-99.99,,,0.01,,2013-03-02 10:51:00,
2013-03-02 05:01:00,34.0,32.0,30.06,NW,314,4.0,-999.0,93,-99.99,,,0.01,,2013-03-02 11:01:00,
2013-03-02 05:11:00,34.0,32.0,30.06,NW,314,4.0,-999.0,93,-99.99,,,0.01,,2013-03-02 11:11:00,
2013-03-02 05:21:00,34.0,32.0,30.06,NNW,337,4.0,-999.0,91,-99.99,,,0.01,,2013-03-02 11:21:00,
2013-03-02 05:32:00,34.0,32.0,30.07,NNW,330,3.0,-999.0,91,-99.99,,,0.01,,2013-03-02 11:32:00,
2013-03-02 05:42:00,34.0,32.0,30.07,NNW,330,3.0,-999.0,91,-99.99,,,0.01,,2013-03-02 11:42:00,
2013-03-02 05:52:00,34.0,31.0,30.07,NW,323,3.0,-999.0,90,-99.99,,,0.01,,2013-03-02 11:52:00,
2013-03-02 06:02:00,34.0,31.0,30.08,NW,315,3.0,-999.0,90,-99.99,,,0.01,,2013-03-02 12:02:00,
2013-03-02 06:11:00,34.0,31.0,30.08,NW,315,3.0,-999.0,90,-99.99,,,0.01,,2013-03-02 12:11:00,
2013-03-02 06:21:00,34.0,31.0,30.08,NNW,345,3.0,-999.0,89,-99.99,,,0.01,,2013-03-02 12:21:00,
2013-03-02 06:33:00,34.0,31.0,30.08,NNW,333,3.0,-999.0,89,-99.99,,,0.01,,2013-03-02 12:33:00,
2013-03-02 06:43:00,34.0,31.0,30.08,NNW,333,3.0,-999.0,89,-99.99,,,0.01,,2013-03-02 12:43:00,
2013-03-02 06:53:00,34.0,31.0,30.09,NW,324,2.0,-999.0,89,-99.99,,,0.01,,2013-03-02 12:53:00,
2013-03-02 07:01:00,34.0,31.0,30.09,North,10,2.0,-999.0,90,-99.99,,,0.01,,2013-03-02 13:01:00,
2013-03-02 07:11:00,34.0,31.0,30.09,North,10,2.0,-999.0,90,-99.99,,,0.01,,2013-03-02 13:11:00,
2013-03-02 07:22:00,34.0,31.0,30.09,NW,326,4.0,-999.0,89,-99.99,,,0.01,,2013-03-02 13:22:00,
2013-03-02 07:32:00,34.0,31.0,30.09,NNW,330,4.0,-999.0,89,-99.99,,,0.01,,2013-03-02 13:32:00,
2013-03-02 07:42:00,34.0,31.0,30.09,NNW,330,4.0,-999.0,89,-99.99,,,0.01,,2013-03-02 13:42:00,
2013-03-02 07:52:00,35.0,32.0,30.10,NW,312,4.0,-999.0,88,-99.99,,,0.01,,2013-03-02 13:52:00,
2013-03-02 08:01:00,35.0,32.0,30.10,WNW,301,5.0,-999.0,88,-99.99,,,0.01,,2013-03-02 14:01:00,
2013-03-02 08:11:00,35.0,32.0,30.10,WNW,301,5.0,-999.0,88,-99.99,,,0.01,,2013-03-02 14:11:00,
2013-03-02 08:21:00,35.0,31.0,30.11,NNW,337,6.0,-999.0,86,-99.99,,,0.01,,2013-03-02 14:21:00,
2013-03-02 08:32:00,35.0,31.0,30.11,NNW,345,5.0,-999.0,86,-99.99,,,0.01,,2013-03-02 14:32:00,
2013-03-02 08:42:00,35.0,31.0,30.11,NNW,345,5.0,-999.0,86,-99.99,,,0.01,,2013-03-02 14:42:00,
2013-03-02 08:52:00,36.0,32.0,30.11,WNW,295,6.0,-999.0,84,-99.99,,,0.01,,2013-03-02 14:52:00,
2013-03-02 09:02:00,36.0,32.0,30.11,NW,312,5.0,-999.0,84,-99.99,,,0.01,,2013-03-02 15:02:00,
2013-03-02 09:11:00,36.0,32.0,30.11,NW,312,5.0,-999.0,84,-99.99,,,0.01,,2013-03-02 15:11:00,
2013-03-02 09:21:00,35.0,30.0,30.11,WNW,300,7.0,-999.0,81,-99.99,,,0.01,,2013-03-02 15:21:00,
2013-03-02 09:31:00,35.0,30.0,30.11,WNW,295,8.0,-999.0,81,-99.99,,,0.01,,2013-03-02 15:31:00,
2013-03-02 09:42:00,35.0,30.0,30.11,WNW,295,8.0,-999.0,81,-99.99,,,0.01,,2013-03-02 15:42:00,
2013-03-02 09:52:00,36.0,31.0,30.12,West,270,8.0,-999.0,81,-99.99,,,0.01,,2013-03-02 15:52:00,
2013-03-02 10:01:00,36.0,31.0,30.11,WNW,301,6.0,-999.0,81,-99.99,,,0.01,,2013-03-02 16:01:00,
2013-03-02 10:11:00,36.0,31.0,30.11,WNW,301,6.0,-999.0,81,-99.99,,,0.01,,2013-03-02 16:11:00,
2013-03-02 10:21:00,37.0,30.0,30.12,WNW,298,6.0,-999.0,75,-99.99,,,0.01,,2013-03-02 16:21:00,
2013-03-02 10:31:00,37.0,30.0,30.12,WNW,290,8.0,-999.0,76,-99.99,,,0.01,,2013-03-02 16:31:00,
2013-03-02 10:42:00,37.0,30.0,30.12,WNW,290,8.0,-999.0,76,-99.99,,,0.01,,2013-03-02 16:42:00,
2013-03-02 10:52:00,37.0,30.0,30.12,NW,316,5.0,-999.0,76,-99.99,,,0.01,,2013-03-02 16:52:00,
2013-03-02 11:01:00,36.0,29.0,30.12,NW,318,6.0,-999.0,75,-99.99,,,0.01,,2013-03-02 17:01:00,
2013-03-02 11:11:00,36.0,29.0,30.12,NW,318,6.0,-999.0,75,-99.99,,,0.01,,2013-03-02 17:11:00,
2013-03-02 11:21:00,37.0,29.0,30.12,NW,308,9.0,-999.0,74,-99.99,,,0.01,,2013-03-02 17:21:00,
2013-03-02 11:32:00,37.0,29.0,30.12,NW,312,9.0,-999.0,74,-99.99,,,0.01,,2013-03-02 17:32:00,
2013-03-02 11:42:00,37.0,29.0,30.12,NW,312,9.0,-999.0,74,-99.99,,,0.01,,2013-03-02 17:42:00,
2013-03-02 11:52:00,37.0,29.0,30.12,WNW,302,9.0,-999.0,74,-99.99,,,0.01,,2013-03-02 17:52:00,
2013-03-02 12:02:00,37.0,30.0,30.12,WNW,292,6.0,-999.0,77,-99.99,,,0.01,,2013-03-02 18:02:00,
2013-03-02 12:11:00,37.0,30.0,30.12,WNW,292,6.0,-999.0,77,-99.99,,,0.01,,2013-03-02 18:11:00,
2013-03-02 12:22:00,36.0,31.0,30.12,WNW,303,7.0,-999.0,81,-99.99,,,0.01,,2013-03-02 18:22:00,
2013-03-02 12:32:00,37.0,31.0,30.11,NW,308,7.0,-999.0,80,-99.99,,,0.01,,2013-03-02 18:32:00,
2013-03-02 12:42:00,37.0,31.0,30.11,NW,308,7.0,-999.0,80,-99.99,,,0.01,,2013-03-02 18:42:00,
2013-03-02 12:52:00,37.0,31.0,30.10,West,274,8.0,-999.0,78,-99.99,,,0.01,,2013-03-02 18:52:00,
2013-03-02 13:01:00,35.0,31.0,30.10,NW,314,8.0,-999.0,85,-99.99,,,0.01,,2013-03-02 19:01:00,
2013-03-02 13:11:00,35.0,31.0,30.10,NW,314,8.0,-999.0,85,-99.99,,,0.01,,2013-03-02 19:11:00,
2013-03-02 13:21:00,35.0,31.0,30.10,NW,314,8.0,-999.0,85,-99.99,,,0.01,,2013-03-02 19:21:00,
2013-03-02 13:32:00,35.0,32.0,30.09,NNW,339,7.0,-999.0,87,-99.99,,,0.01,,2013-03-02 19:32:00,
2013-03-02 13:42:00,35.0,32.0,30.09,NNW,339,7.0,-999.0,87,-99.99,,,0.01,,2013-03-02 19:42:00,
2013-03-02 13:52:00,36.0,33.0,30.09,West,275,7.0,-999.0,87,-99.99,,,0.02,,2013-03-02 19:52:00,
2013-03-02 14:01:00,36.0,32.0,30.09,NW,306,10.0,-999.0,86,-99.99,,,0.02,,2013-03-02 20:01:00,
2013-03-02 14:11:00,36.0,32.0,30.09,NW,306,10.0,-999.0,86,-99.99,,,0.02,,2013-03-02 20:11:00,
2013-03-02 14:22:00,36.0,32.0,30.10,West,268,7.0,-999.0,85,-99.99,,,0.02,,2013-03-02 20:22:00,
2013-03-02 14:32:00,36.0,32.0,30.10,NW,312,6.0,-999.0,86,-99.99,,,0.02,,2013-03-02 20:32:00,
2013-03-02 14:42:00,36.0,32.0,30.10,NW,312,6.0,-999.0,86,-99.99,,,0.02,,2013-03-02 20:42:00,
2013-03-02 14:52:00,36.0,32.0,30.10,WNW,302,8.0,-999.0,86,-99.99,,,0.02,,2013-03-02 20:52:00,
2013-03-02 15:02:00,35.0,31.0,30.10,WNW,295,7.0,-999.0,86,-99.99,,,0.02,,2013-03-02 21:02:00,
2013-03-02 15:11:00,35.0,31.0,30.10,WNW,295,7.0,-999.0,86,-99.99,,,0.02,,2013-03-02 21:11:00,
2013-03-02 15:22:00,35.0,32.0,30.10,WNW,302,5.0,-999.0,87,-99.99,,,0.02,,2013-03-02 21:22:00,
2013-03-02 15:32:00,35.0,32.0,30.10,WNW,300,8.0,-999.0,87,-99.99,,,0.02,,2013-03-02 21:32:00,
2013-03-02 15:42:00,35.0,32.0,30.10,WNW,300,8.0,-999.0,87,-99.99,,,0.02,,2013-03-02 21:42:00,
2013-03-02 15:52:00,35.0,32.0,30.10,WNW,300,8.0,-999.0,87,-99.99,,,0.02,,2013-03-02 21:52:00,
2013-03-02 16:01:00,35.0,32.0,30.10,WNW,300,8.0,-999.0,87,-99.99,,,0.02,,2013-03-02 22:01:00,
2013-03-02 16:11:00,35.0,32.0,30.10,WNW,300,8.0,-999.0,87,-99.99,,,0.02,,2013-03-02 22:11:00,
2013-03-02 16:32:00,36.0,32.0,30.11,WNW,298,7.0,-999.0,85,-99.99,,,0.02,,2013-03-02 22:32:00,
2013-03-02 16:42:00,36.0,32.0,30.11,WNW,298,7.0,-999.0,85,-99.99,,,0.02,,2013-03-02 22:42:00,
2013-03-02 16:52:00,36.0,32.0,30.12,WNW,291,8.0,-999.0,85,-99.99,,,0.02,,2013-03-02 22:52:00,
2013-03-02 17:01:00,35.0,31.0,30.12,NW,304,8.0,-999.0,85,-99.99,,,0.02,,2013-03-02 23:01:00,
2013-03-02 17:11:00,35.0,31.0,30.13,WNW,303,8.0,-999.0,84,-99.99,,,0.02,,2013-03-02 23:11:00,
2013-03-02 17:21:00,35.0,31.0,30.13,WNW,303,8.0,-999.0,84,-99.99,,,0.02,,2013-03-02 23:21:00,
2013-03-02 17:32:00,35.0,31.0,30.13,NW,306,7.0,-999.0,84,-99.99,,,0.02,,2013-03-02 23:32:00,
2013-03-02 17:42:00,35.0,31.0,30.13,NW,306,7.0,-999.0,84,-99.99,,,0.02,,2013-03-02 23:42:00,
2013-03-02 17:52:00,35.0,31.0,30.14,NW,326,6.0,-999.0,85,-99.99,,,0.02,,2013-03-02 23:52:00,
2013-03-02 18:02:00,35.0,31.0,30.14,NNW,343,5.0,-999.0,85,-99.99,,,0.02,,2013-03-03 00:02:00,
2013-03-02 18:11:00,35.0,31.0,30.14,NNW,343,5.0,-999.0,85,-99.99,,,0.02,,2013-03-03 00:11:00,
2013-03-02 18:22:00,35.0,31.0,30.14,NW,322,6.0,-999.0,85,-99.99,,,0.02,,2013-03-03 00:22:00,
2013-03-02 18:32:00,35.0,30.0,30.14,NNW,331,6.0,-999.0,83,-99.99,,,0.00,,2013-03-03 00:32:00,
2013-03-02 18:42:00,35.0,30.0,30.14,NNW,331,6.0,-999.0,83,-99.99,,,0.00,,2013-03-03 00:42:00,
2013-03-02 18:52:00,35.0,31.0,30.15,WNW,303,7.0,-999.0,84,-99.99,,,0.00,,2013-03-03 00:52:00,
2013-03-02 19:01:00,34.0,30.0,30.16,NW,326,7.0,-999.0,85,-99.99,,,0.00,,2013-03-03 01:01:00,
2013-03-02 19:11:00,34.0,30.0,30.16,NW,326,7.0,-999.0,85,-99.99,,,0.00,,2013-03-03 01:11:00,
2013-03-02 19:21:00,34.0,30.0,30.16,NW,326,7.0,-999.0,85,-99.99,,,0.00,,2013-03-03 01:21:00,
2013-03-02 19:32:00,34.0,30.0,30.16,NW,312,6.0,-999.0,85,-99.99,,,0.00,,2013-03-03 01:32:00,
2013-03-02 19:41:00,34.0,30.0,30.16,NW,312,6.0,-999.0,85,-99.99,,,0.00,,2013-03-03 01:41:00,
2013-03-02 19:52:00,34.0,30.0,30.16,WNW,303,5.0,-999.0,85,-99.99,,,0.00,,2013-03-03 01:52:00,
2013-03-02 20:01:00,34.0,30.0,30.16,WNW,301,5.0,-999.0,86,-99.99,,,0.00,,2013-03-03 02:01:00,
2013-03-02 20:11:00,34.0,30.0,30.16,WNW,301,5.0,-999.0,86,-99.99,,,0.00,,2013-03-03 02:11:00,
2013-03-02 20:21:00,34.0,30.0,30.16,NW,308,7.0,-999.0,85,-99.99,,,0.00,,2013-03-03 02:21:00,
2013-03-02 20:31:00,34.0,30.0,30.16,NNW,330,6.0,-999.0,85,-99.99,,,0.00,,2013-03-03 02:31:00,
2013-03-02 20:42:00,34.0,30.0,30.16,NNW,330,6.0,-999.0,85,-99.99,,,0.00,,2013-03-03 02:42:00,
2013-03-02 20:52:00,34.0,30.0,30.17,West,279,5.0,-999.0,85,-99.99,,,0.00,,2013-03-03 02:52:00,
2013-03-02 21:01:00,33.0,29.0,30.17,WNW,289,5.0,-999.0,84,-99.99,,,0.00,,2013-03-03 03:01:00,
2013-03-02 21:11:00,33.0,29.0,30.17,WNW,289,5.0,-999.0,84,-99.99,,,0.00,,2013-03-03 03:11:00,
2013-03-02 21:21:00,33.0,29.0,30.18,NW,311,5.0,-999.0,84,-99.99,,,0.00,,2013-03-03 03:21:00,
2013-03-02 21:31:00,33.0,29.0,30.18,NW,324,5.0,-999.0,84,-99.99,,,0.00,,2013-03-03 03:31:00,
2013-03-02 21:41:00,33.0,29.0,30.18,NW,324,5.0,-999.0,84,-99.99,,,0.00,,2013-03-03 03:41:00,
2013-03-02 21:52:00,33.0,29.0,30.18,WNW,293,5.0,-999.0,84,-99.99,,,0.00,,2013-03-03 03:52:00,
2013-03-02 22:01:00,33.0,29.0,30.17,WNW,295,4.0,-999.0,86,-99.99,,,0.00,,2013-03-03 04:01:00,
2013-03-02 22:11:00,33.0,29.0,30.17,WNW,295,4.0,-999.0,86,-99.99,,,0.00,,2013-03-03 04:11:00,
2013-03-02 22:21:00,33.0,29.0,30.17,WNW,295,4.0,-999.0,86,-99.99,,,0.00,,2013-03-03 04:21:00,
2013-03-02 22:32:00,33.0,29.0,30.17,NW,308,6.0,-999.0,85,-99.99,,,0.00,,2013-03-03 04:32:00,
2013-03-02 22:41:00,33.0,29.0,30.17,NW,308,6.0,-999.0,85,-99.99,,,0.00,,2013-03-03 04:41:00,
2013-03-02 22:52:00,32.0,27.0,30.17,NW,306,5.0,-999.0,83,-99.99,,,0.00,,2013-03-03 04:52:00,
2013-03-02 23:02:00,32.0,27.0,30.17,NNW,345,6.0,-999.0,81,-99.99,,,0.00,,2013-03-03 05:02:00,
2013-03-02 23:11:00,32.0,27.0,30.17,NNW,345,6.0,-999.0,81,-99.99,,,0.00,,2013-03-03 05:11:00,
2013-03-02 23:22:00,32.0,27.0,30.17,NW,312,5.0,-999.0,81,-99.99,,,0.00,,2013-03-03 05:22:00,
2013-03-02 23:32:00,32.0,27.0,30.17,WNW,302,4.0,-999.0,81,-99.99,,,0.00,,2013-03-03 05:32:00,
2013-03-02 23:42:00,32.0,27.0,30.17,WNW,302,4.0,-999.0,81,-99.99,,,0.00,,2013-03-03 05:42:00,
2013-03-02 23:52:00,32.0,27.0,30.17,NW,305,5.0,-999.0,81,-99.99,,,0.00,,2013-03-03 05:52:00,